Location: Taupo
(38.6830°S, 176.0830°E)
Time: 22:48:34
(UTC+13:00)

Cosmos 1707 Rocket - Pass Details

Date: 24 January 2019
Orbit: 604 x 632 km, 82.5° (Epoch: 18 October)

Event Time Altitude Azimuth Distance (km) Brightness Sun altitude
Exits shadow 22:54:54 68° 38° (NE) 663 3.4 -21.9°
Maximum altitude 22:55:18 74° 84° (E) 641 3.4 -22.0°
Drops below altitude 10° 22:59:41 10° 169° (S) 1,986 6.7 -22.5°
Sets 23:01:56 0° 170° (S) 2,901 7.6 -22.8°
